x

Boston 16 Nm East Of Boston, Ma (44013) Wave Buoy

5:50am - Mon 31st Aug 2015 All times are EDT. -4 hours from GMT.

  • Sig Wave height 1.3ft
  • Swell Direction
  • Peak Period 10s
  • Average Period 6s
  • Wind
    9mph, 11mph gusts
  • Sea Temp 70°f
  • 空気 Temp 70°f
  • Sea Pressure 1014.8mb
  • Boston 16 Nm East Of Boston, Ma
  • Boston 16 Nm East Of Boston, Ma

More Historic Weather Station data

Upgrade to MSW Pro to gain access to the past 30 days of data for over 8000 Wavebouys and Weather Stations around the globe.

Join Pro

Comparision Forecast

View Surf forecast
   
Mon 08/31 5:50am 1.3ft 10s 6s 9 11 mph 1014.8mb 70f 70f
4:50am 1ft 8s 5s 13
mph
1014.7mb 71f 71f
3:50am 1ft 9s 6s 7 9 mph 1014.9mb 71f 71f
2:50am 1ft 9s 6s 7 9 mph 1015.1mb 71f 71f
1:50am 1ft 9s 6s 7 9 mph 1015.4mb 71f 72f
12:50am 1.3ft 10s 7s 7 9 mph 1015.7mb 71f 73f
Sun 08/30 11:50pm 1.3ft 10s 7s 9
mph
1015.9mb 71f 73f
10:50pm 1.3ft 9s 6s 7
mph
1016.2mb 72f 73f
9:50pm 1.3ft 9s 6s 7 11 mph 1016.4mb 72f 73f
8:50pm 1.3ft 9s 6s 2 4 mph 1016.5mb 72f 71f
7:50pm 1.3ft 10s 6s 4
mph
1016mb 72f 72f
6:50pm 1.3ft 11s 6s 7
mph
1015.8mb 72f 72f
5:50pm 1.3ft 10s 6s 7 9 mph 1016mb 73f 73f
4:50pm 1.3ft 10s 6s 7 9 mph 1016mb 72f 74f
3:50pm 1.3ft 10s 5s 9 11 mph 1016.3mb 72f 74f
2:50pm 1.3ft 10s 5s 7 9 mph 1016.8mb 73f 74f
1:50pm 1.3ft 10s 5s 4 7 mph 1017.1mb 73f 74f
12:50pm 1.3ft 10s 6s 2
mph
1017.6mb 72f 75f
11:50am 1.3ft 10s 6s 7 9 mph 1018.3mb 71f 72f
10:50am 1.6ft 9s 6s 7 9 mph 1018.2mb 71f 71f
9:50am 1.6ft 10s 5s 7
mph
1018.5mb 70f 70f
8:50am 2ft 9s 6s 11 13 mph 1018.3mb 70f 69f
7:50am 2ft 10s 5s 11 13 mph 1018.4mb 70f 68f
6:50am 1.6ft 9s 5s 13 16 mph 1018.4mb 70f 68f
5:50am 1.6ft 11s 5s 13 16 mph 1017.9mb 70f 68f
4:50am 2ft 11s 6s 11 13 mph 1018mb 70f 69f
3:50am 1.6ft 10s 5s 9 13 mph 1018.1mb 70f 69f
2:50am 1.6ft 11s 5s 11 13 mph 1018.3mb 70f 69f
1:50am 1.6ft 10s 4s 11 13 mph 1018.5mb 70f 69f
12:50am 1.6ft 10s 4s 13 16 mph 1018.6mb 70f 69f
Sat 08/29 11:50pm 2ft 10s 5s 11 13 mph 1018.8mb 70f 69f
10:50pm 2ft 11s 5s 13 16 mph 1019mb 71f 70f
9:50pm 2ft 10s 6s 13 16 mph 1019mb 71f 70f
8:50pm 2ft 10s 6s 11
mph
1019mb 71f 71f
7:50pm 2.5ft 9s 6s 7
mph
1018.9mb 71f 73f
6:50pm 2.5ft 10s 7s 4 7 mph 1018.9mb 71f 73f
5:50pm 2.5ft 10s 7s 7 9 mph 1018.9mb 71f 73f
4:50pm 2.5ft 10s 8s 7 9 mph 1019.2mb 71f 72f
3:50pm 2.5ft 10s 8s 7 9 mph 1019.8mb 71f 72f
2:50pm 2ft 10s 7s 11 13 mph 1020.6mb 71f 71f
1:50pm 2ft 11s 7s 7 9 mph 1021.1mb 71f 72f
12:50pm 2ft 10s 7s 9
mph
1021.5mb 71f 70f
11:50am 2ft 11s 8s 2 4 mph 1022mb 70f 71f
10:50am 2.5ft 11s 8s 2 4 mph 1022.5mb 69f 69f
9:50am 2.5ft 10s 7s 7 9 mph 1022.5mb 68f 67f
8:50am 2.5ft 10s 7s 4 7 mph 1022.3mb 68f 67f
7:50am 2.5ft 8s 7s 9
mph
1022.5mb 68f 67f
6:50am 2.5ft 9s 8s 9 11 mph 1022.3mb 68f 66f
5:50am 2.5ft 10s 8s 9 11 mph 1021.5mb 68f 66f
4:50am 2.5ft 10s 8s 9
mph
1021.3mb 68f 66f
3:50am 2.5ft 10s 8s 9
mph
1021.3mb 68f 67f
2:50am 2.5ft 11s 8s 9
mph
1021.4mb 68f 67f
1:50am 2.5ft 11s 8s 9 11 mph 1021.3mb 68f 68f
12:50am 2.5ft 11s 8s 7 9 mph 1021.5mb 69f 68f
Fri 08/28 11:50pm 2.5ft 11s 7s 7 9 mph 1021.3mb 69f 68f
10:50pm 2.5ft 10s 7s 9
mph
1021.2mb 69f 69f
9:50pm 2.5ft 11s 7s 11
mph
1020.8mb 70f 70f
8:50pm 2.5ft 11s 7s 9 11 mph 1020.8mb 70f 70f
7:50pm 3ft 9s 7s 11
mph
1020.3mb 70f 70f
6:50pm 3ft 9s 7s 13
mph
1020mb 70f 70f
5:50pm 3ft 10s 9s 13
mph
1019.9mb 71f 70f
4:50pm 2.5ft 11s 8s 11
mph
1020.1mb 71f 69f
3:50pm 2.5ft 11s 8s 9
mph
1020.3mb 71f 70f
2:50pm 2.5ft 11s 8s 4 7 mph 1020.7mb 71f 69f
1:50pm 2.5ft 10s 7s 2 4 mph 1020.9mb 72f 69f
12:50pm 2.5ft 11s 8s 2 4 mph 1021.3mb 71f 68f
11:50am 2.5ft 10s 7s 2 4 mph 1021.3mb 70f 67f
10:50am 2.5ft 10s 6s 2 4 mph 1021.2mb 69f 66f
9:50am 2.5ft 10s 6s 4 7 mph 1020.9mb 69f 65f
8:50am 2.5ft 8s 5s 9
mph
1020.7mb 69f 65f
7:50am 2.5ft 11s 5s 11 13 mph 1020.4mb 68f 65f
6:50am 3ft 10s 6s 11 13 mph 1019.9mb 68f 65f
5:50am 3.5ft 9s 6s 13
mph
1019.5mb 68f 65f
4:50am 2.5ft 9s 5s 13 16 mph 1019.1mb 69f 65f
3:50am 2.5ft 10s 6s 11 16 mph 1018.9mb 69f 67f
2:50am 2.5ft 10s 7s 11
mph
1018.6mb 69f 67f
1:50am 2.5ft 10s 7s 11
mph
1018.4mb 69f 68f
12:50am 2.5ft 10s 7s 11 13 mph 1018.3mb 69f 69f
Thu 08/27 11:50pm 2.5ft 10s 7s 11 13 mph 1018mb 70f 69f
10:50pm 2.5ft 11s 6s 9 11 mph 1017.6mb 69f 70f
9:50pm 2.5ft 9s 6s 11 13 mph 1017.2mb 69f 71f
8:50pm 2.5ft 10s 7s 11 16 mph 1016.8mb 70f 72f
7:50pm 2.5ft 9s 6s 7 9 mph 1015.9mb 70f 71f
6:50pm 3ft 8s 7s 4
mph
1015.5mb 70f 73f
5:50pm 3ft 9s 7s 4 9 mph 1015.2mb 70f 73f
4:50pm 2.5ft 9s 7s 11
mph
1014.9mb 71f 72f
3:50pm 2.5ft 10s 7s 2
mph
1014.9mb 72f 73f
2:50pm 2.5ft 9s 7s 4
mph
1015.1mb 71f 73f
1:50pm 2ft 9s 7s 4 7 mph 1015.3mb 70f 72f
12:50pm 2.5ft 10s 6s 2 4 mph 1015.7mb 70f 71f
11:50am 2.5ft 8s 5s 4 7 mph 1015.8mb 69f 70f